Temperature
19 18 19 19 19 19 19 19 19 19 19 19 19 19 19 19 19 19 19 19 19 19 18 18 18 18 18 18 18 18 18 18 18 18 18 18 18 18 18 18 18 17 18
19 18 19 19 19 19 19 19 19 19 19 19 19 19 19 19 19 19 19 19 18 18 18 18 18 18 18 18 18 18 18 18 18 18 18 18 18 18 18 18 17 17 18
19 18 18 19 19 18 18 18 19 19 19 19 19 19 19 19 19 19 19 18 18 18 18 18 18 18 18 18 18 18 18 18 18 18 18 17 18 18 18 18 18 18 18
19 18 18 19 19 18 18 18 18 19 19 19 19 19 18 18 18 19 18 18 18 18 18 18 18 18 18 18 18 18 18 18 18 18 17 17 17 18 18 18 18 18 18
19 18 18 19 19 19 18 18 18 19 19 19 19 18 18 18 18 18 18 18 18 18 18 18 18 18 18 18 18 18 18 18 18 18 17 17 17 18 18 18 18 18 18
19 19 18 19 19 19 19 19 19 19 19 18 18 18 18 18 18 18 18 18 18 18 18 18 18 18 18 18 18 18 18 18 18 17 17 17 17 18 18 18 18 18 18
19 19 18 19 19 19 19 19 19 19 19 19 19 18 18 18 18 18 18 18 18 18 18 18 18 18 18 18 18 18 18 18 17 18 17 17 17 18 18 18 18 18 17
19 19 18 19 19 19 19 18 18 18 19 18 18 18 18 18 18 18 18 18 18 18 18 18 18 18 18 18 18 18 18 18 17 18 18 17 18 18 18 18 18 18 17
19 19 19 18 19 19 19 19 18 19 19 19 19 18 18 18 18 18 18 18 18 18 18 18 18 18 18 18 18 18 18 18 18 18 18 17 18 18 18 18 18 18 18
19 19 19 19 19 18 18 19 18 19 19 19 19 19 18 18 18 18 18 18 18 18 18 18 18 18 18 18 18 18 18 18 18 18 18 18 18 18 18 18 18 18 17
19 19 19 19 19 19 18 18 18 18 19 18 18 18 18 18 18 18 18 18 18 18 18 18 18 18 18 18 18 18 18 18 18 18 18 18 18 18 18 18 18 17 17
19 19 19 19 19 19 18 18 18 18 18 18 18 18 18 18 18 18 18 18 18 18 18 18 18 18 18 18 18 18 18 18 18 18 18 18 18 18 18 18 18 17 17
20 19 19 19 19 19 19 19 18 18 18 18 18 18 18 18 18 18 18 18 18 18 18 18 18 18 18 18 18 18 18 18 18 18 18 18 18 18 18 18 18 18 17
20 19 19 19 19 19 19 19 18 19 18 18 18 18 18 18 18 18 18 18 18 18 18 18 18 18 18 18 18 18 18 18 18 18 18 18 18 18 18 18 18 18 17
20 20 19 19 19 19 19 19 19 18 19 18 18 18 18 18 18 18 18 18 18 18 18 18 18 18 18 18 18 18 18 18 18 18 18 18 18 18 18 18 18 17 17
20 20 19 19 19 19 19 19 18 19 19 18 18 18 18 18 18 18 18 18 18 18 18 18 18 18 18 18 18 18 18 18 18 17 18 18 18 18 18 18 18 18 18
20 19 19 19 19 19 19 18 19 19 19 18 18 18 18 18 18 18 18 18 18 18 18 18 18 18 18 18 18 18 18 18 18 18 18 18 18 18 18 18 18 17 17
20 19 19 19 19 19 19 19 19 19 18 18 18 18 18 18 18 18 18 18 18 18 18 18 18 18 18 18 18 18 18 18 18 18 18 18 18 18 18 18 18 18 17
20 20 20 19 19 19 19 19 18 18 18 18 18 18 18 18 18 18 18 18 18 18 18 18 18 18 18 18 18 18 18 18 18 18 18 18 18 17 18 18 18 18 18
20 20 20 19 19 19 19 19 18 18 18 18 18 18 18 18 18 18 18 18 18 18 18 18 18 18 18 18 18 18 18 18 18 18 18 18 18 17 17 17 17 17 18
21 20 20 20 19 19 19 19 19 18 18 18 18 18 18 18 18 18 18 18 18 18 18 18 18 18 18 18 18 18 18 18 18 18 18 18 18 17 17 17 17 17 17
21 20 20 20 20 19 19 19 19 19 18 18 18 18 18 18 18 18 18 18 18 18 18 18 18 18 18 18 18 19 19 19 18 18 18 18 18 18 17 17 17 17 17
21 21 20 20 20 20 19 19 19 19 18 18 18 18 18 18 18 18 18 18 17 17 17 17 17 17 18 18 18 18 19 20 19 19 18 18 17 17 17 17 17 17 17
22 21 21 21 20 20 20 19 19 19 19 18 18 18 18 18 18 18 18 17 17 17 17 17 17 17 17 18 18 18 18 18 19 19 19 18 18 17 17 17 17 17 17
22 21 21 21 21 20 20 19 19 19 19 19 18 18 18 18 18 18 18 18 17 17 17 17 17 17 17 17 17 17 17 17 18 18 19 18 18 18 17 17 17 17 17
22 21 21 21 21 20 20 20 19 19 19 19 18 18 18 18 18 18 18 18 17 17 17 17 17 17 17 17 17 17 17 18 18 18 18 18 18 18 17 17 17 17 17
Wind_Speed
7 9 11 10 11 12 12 12 12 12 12 12 13 13 13 13 13 12 12 12 11 11 10 10 10 9 9 9 10 10 10 9 9 10 10 10 10 10 9 8 8 9 12
9 10 12 10 11 11 12 12 11 11 12 12 12 13 13 12 12 11 11 11 10 10 10 9 9 9 9 9 9 9 9 9 9 9 9 9 9 9 8 6 5 9 11
10 11 11 10 10 11 11 11 11 11 12 12 12 12 11 11 11 10 10 10 10 9 9 9 8 8 8 8 8 8 8 8 8 8 7 7 9 9 8 8 8 9 10
10 10 11 11 10 10 10 10 10 11 11 11 11 11 10 10 10 10 10 9 9 8 8 8 8 7 7 8 8 7 7 6 6 6 5 6 7 10 9 9 9 8 9
9 10 12 11 10 10 9 9 10 10 10 11 10 10 10 9 9 9 9 8 8 8 7 7 7 7 7 7 7 6 6 5 5 5 4 5 6 9 8 8 8 8 8
10 10 12 10 10 9 9 9 10 10 10 10 10 9 9 9 8 8 8 8 8 8 7 7 7 7 6 6 6 6 5 5 6 5 4 5 6 8 8 8 8 8 8
9 10 12 11 10 9 10 10 10 10 10 10 9 8 8 8 8 8 7 7 7 7 7 6 6 6 6 5 5 5 5 4 4 4 4 4 6 8 7 7 7 8 8
9 10 12 12 10 10 10 10 9 9 9 9 8 8 8 8 8 8 7 7 7 7 7 6 5 6 5 4 4 4 4 5 4 3 3 4 8 7 7 7 7 7 8
9 10 11 12 12 11 10 9 8 9 8 8 7 7 7 6 6 6 6 6 6 6 6 5 5 5 5 4 4 3 3 4 3 3 3 4 8 7 7 7 7 7 7
9 10 9 10 10 10 11 10 9 9 8 7 7 6 6 6 6 6 6 6 6 6 6 5 5 5 5 4 4 4 4 6 3 2 3 6 8 6 7 7 7 7 7
8 8 8 8 9 8 9 10 9 9 8 6 7 6 5 4 4 6 6 6 5 5 5 5 5 4 4 6 5 5 5 3 2 1 2 8 7 5 6 7 7 7 7
9 8 7 7 7 7 7 7 6 6 7 4 4 4 3 3 2 4 8 6 5 5 6 6 5 6 6 5 7 8 3 2 2 2 5 8 6 5 5 6 6 7 7
9 8 7 6 6 6 5 5 4 4 4 4 4 3 3 2 2 3 4 5 5 5 4 6 6 4 2 1 1 2 1 1 1 2 6 7 5 5 5 6 7 6 7
9 8 7 7 6 5 4 4 4 3 3 3 4 3 2 1 1 2 1 2 3 3 2 2 2 2 2 2 2 2 2 1 1 2 6 7 4 4 4 5 6 7 7
8 8 8 6 5 4 3 2 3 3 3 4 3 3 1 1 1 1 1 1 2 2 3 2 2 2 2 2 2 2 2 2 1 2 5 7 5 4 4 4 5 6 7
8 8 7 7 6 5 4 3 2 3 3 2 3 2 1 1 1 1 2 1 1 2 2 2 2 2 2 2 2 2 2 2 3 2 3 7 8 6 4 4 5 5 5
9 8 7 7 7 6 4 4 3 3 3 2 2 2 1 1 1 1 1 1 1 2 2 3 2 3 3 3 2 2 2 2 2 2 2 2 6 8 7 5 4 4 5
9 8 8 7 7 6 4 3 3 2 2 2 2 2 1 1 1 1 1 1 1 2 2 2 2 2 1 2 2 2 2 3 3 3 3 3 2 4 7 7 5 4 4
9 9 9 8 7 6 5 4 3 2 2 2 2 2 2 1 1 1 1 0 1 1 2 2 2 1 1 1 2 2 2 3 3 2 2 2 2 2 3 8 7 5 4
10 10 9 9 8 7 6 4 3 2 2 2 2 2 1 1 1 1 1 1 1 1 1 1 1 1 1 2 2 1 2 2 2 2 2 2 2 3 3 4 5 7 7
10 10 10 9 8 7 6 5 4 3 3 3 2 2 2 1 1 1 1 0 1 1 1 2 2 2 2 1 2 2 2 3 2 2 2 1 2 3 3 3 3 2 5
11 11 10 10 9 8 6 4 3 3 3 3 2 2 2 1 1 2 0 1 1 1 2 1 2 1 1 1 2 2 2 4 3 3 2 2 2 2 3 4 3 3 3
12 12 10 10 10 9 8 6 4 4 3 3 3 3 2 2 2 1 1 1 1 2 1 2 2 2 2 2 2 2 2 1 1 3 3 3 3 3 3 3 4 4 4
13 12 12 11 11 9 9 7 7 5 4 4 3 2 2 2 2 2 2 2 2 1 1 3 2 2 3 2 2 2 3 3 3 2 3 3 4 4 4 3 3 4 4
13 13 12 12 11 10 9 8 7 6 5 4 3 3 3 3 3 2 2 2 2 2 1 1 1 3 2 3 2 2 2 3 4 4 3 2 3 3 3 3 3 3 4
13 13 12 12 11 11 10 9 8 7 6 5 4 4 4 3 3 3 2 2 2 1 2 2 2 2 2 3 3 3 3 3 4 4 4 4 4 3 3 3 3 3 4
Wind_Direction
118 119 117 121 121 119 118 117 117 119 123 125 124 123 124 126 125 124 122 120 117 116 116 117 119 119 115 114 114 113 113 114 113 112 111 111 114 116 118 124 136 123 118
120 120 122 123 122 120 119 120 120 121 125 125 124 124 124 125 126 124 121 120 118 116 114 115 117 118 116 114 114 115 114 114 116 119 122 124 122 122 125 122 106 115 126
123 123 127 123 123 121 120 121 123 124 126 128 127 127 128 128 127 126 124 121 120 119 117 119 120 119 118 118 117 116 114 114 122 134 155 143 130 130 129 124 119 128 132
122 124 123 120 122 120 121 124 125 125 127 129 131 132 133 132 132 130 127 124 122 125 128 127 125 123 118 122 119 117 119 122 134 173 169 135 132 131 138 135 135 135 138
120 121 117 122 121 119 120 125 126 124 125 128 132 133 135 135 135 134 131 129 126 126 128 132 134 130 124 126 125 123 129 140 174 205 136 132 129 133 145 144 144 144 146
126 124 119 125 122 119 117 122 124 123 123 124 125 128 132 132 131 131 131 133 132 132 130 129 132 132 131 132 133 135 142 169 203 168 149 152 139 139 150 153 155 156 155
129 127 124 124 123 120 117 119 118 121 123 123 122 123 128 130 130 129 128 132 135 136 136 136 137 138 140 142 140 144 155 200 207 156 158 151 133 141 158 164 165 164 162
123 129 126 128 122 118 116 117 118 120 121 120 119 118 120 123 123 121 123 130 136 138 135 134 138 142 140 146 154 149 168 227 184 163 158 138 130 149 167 173 173 167 168
115 121 127 132 131 129 121 117 116 117 115 114 114 115 115 120 126 126 124 132 138 137 136 130 129 134 134 137 142 146 177 246 236 160 158 135 132 158 171 176 178 177 176
113 117 123 126 127 131 128 122 118 112 109 113 116 115 119 134 142 142 141 132 137 139 138 130 130 127 129 132 138 150 191 229 223 171 143 124 137 163 179 183 184 185 188
121 120 121 123 126 125 121 120 126 126 123 132 131 128 140 130 128 143 117 119 128 136 146 143 140 136 152 159 164 178 214 214 172 148 104 113 142 170 184 187 189 193 195
133 128 123 122 122 118 116 121 126 123 120 121 114 119 118 105 108 113 119 130 141 148 156 156 160 179 205 172 164 191 204 177 178 147 116 128 158 182 189 191 193 198 201
136 133 134 125 120 118 121 126 120 117 119 128 119 114 116 128 128 129 136 147 150 168 168 157 185 186 172 148 186 178 159 172 144 124 112 131 158 184 196 198 196 195 197
142 143 140 134 128 122 116 122 135 133 131 123 123 136 137 124 111 120 128 130 143 148 156 173 169 159 168 178 183 163 160 180 136 102 111 127 153 180 191 196 195 197 202
154 152 148 142 135 137 136 149 132 136 138 133 133 141 156 151 129 126 119 147 162 153 173 180 165 165 181 182 186 170 158 142 148 140 126 135 149 161 172 183 194 198 202
165 162 156 162 158 158 159 156 143 143 152 148 151 144 169 144 118 158 150 157 159 176 173 184 181 188 207 186 200 187 203 171 155 177 156 150 157 165 172 179 190 200 204
174 173 170 172 166 169 170 170 166 172 151 137 131 137 155 126 138 191 169 176 150 166 167 181 187 199 205 199 202 203 202 201 172 186 197 186 165 167 172 174 178 193 200
179 176 178 179 170 169 175 183 176 173 154 160 146 139 129 107 162 239 202 168 147 176 177 186 201 200 199 214 206 212 197 184 195 200 200 203 197 171 163 165 170 181 186
184 181 179 179 176 175 176 186 186 179 182 180 166 162 132 150 213 239 236 134 192 189 190 206 156 208 196 213 207 196 205 192 187 196 192 200 197 188 169 157 170 177 185
185 185 183 181 179 178 180 185 184 182 186 186 177 147 155 191 192 241 206 198 230 190 176 160 164 201 222 225 240 190 202 188 192 191 229 207 203 203 193 176 181 183 188
185 185 185 187 178 184 186 189 187 186 187 183 165 144 169 183 175 242 277 216 250 188 175 182 191 184 206 208 232 206 193 189 197 188 212 233 205 199 193 189 199 199 184
185 184 184 185 182 189 183 188 189 181 186 177 170 162 187 183 221 207 216 233 232 188 167 178 208 227 194 201 249 244 217 190 199 194 200 213 221 205 203 198 188 199 228
188 188 187 186 185 188 183 186 178 178 193 189 191 185 186 208 217 238 213 231 235 237 195 209 228 235 227 213 255 281 274 254 223 188 206 218 221 229 229 217 212 208 221
191 187 185 185 186 186 189 194 195 199 201 194 199 185 196 202 208 210 214 219 242 243 212 232 209 253 254 243 221 268 297 323 285 248 209 207 211 224 243 251 240 219 227
189 186 183 183 185 186 192 193 202 207 203 189 192 187 212 201 207 208 208 213 231 243 227 271 260 263 258 271 269 263 263 254 263 272 269 257 232 226 230 246 251 241 235
187 185 182 180 185 187 193 195 200 203 205 200 201 196 212 202 202 199 209 218 232 246 223 238 250 245 268 281 280 273 274 266 263 265 268 254 251 239 239 248 256 249 242
Height
1522 1522 1522 1523 1524 1525 1526 1527 1528 1529 1530 1532 1533 1534 1536 1537 1538 1540 1541 1542 1543 1544 1546 1546 1548 1549 1549 1550 1552 1553 1554 1555 1556 1556 1557 1558 1558 1559 1560 1560 1561 1563 1563
1524 1524 1523 1524 1526 1527 1528 1529 1530 1531 1532 1534 1535 1536 1538 1539 1540 1542 1543 1544 1545 1546 1547 1548 1549 1550 1551 1552 1553 1554 1555 1556 1557 1558 1558 1559 1560 1560 1561 1561 1562 1564 1564
1525 1525 1525 1526 1527 1529 1530 1530 1532 1533 1534 1535 1537 1538 1539 1541 1542 1543 1544 1545 1546 1547 1548 1549 1550 1551 1552 1553 1554 1555 1556 1557 1558 1559 1560 1561 1561 1561 1562 1563 1563 1564 1565
1527 1528 1528 1528 1529 1530 1531 1532 1533 1534 1535 1537 1538 1540 1541 1542 1543 1545 1546 1547 1548 1548 1549 1550 1551 1552 1553 1553 1554 1556 1557 1558 1559 1560 1562 1563 1563 1562 1563 1563 1564 1565 1566
1528 1529 1529 1530 1531 1532 1532 1533 1534 1535 1537 1538 1540 1541 1542 1544 1545 1546 1547 1548 1549 1549 1550 1550 1552 1553 1554 1555 1556 1557 1558 1558 1560 1561 1563 1563 1563 1563 1563 1564 1565 1566 1566
1529 1531 1531 1531 1532 1533 1533 1534 1535 1537 1538 1540 1541 1542 1544 1545 1546 1547 1548 1549 1550 1550 1551 1552 1553 1554 1555 1556 1557 1558 1559 1559 1561 1563 1563 1564 1564 1563 1564 1565 1565 1566 1567
1530 1531 1532 1533 1534 1535 1534 1535 1537 1539 1540 1541 1543 1544 1545 1546 1547 1548 1549 1550 1551 1552 1552 1553 1554 1555 1556 1557 1558 1558 1559 1560 1562 1563 1564 1564 1564 1563 1564 1565 1566 1567 1567
1529 1530 1533 1534 1536 1537 1538 1538 1539 1541 1542 1543 1544 1545 1546 1547 1548 1549 1550 1550 1552 1553 1553 1554 1555 1556 1557 1558 1558 1559 1560 1561 1563 1564 1565 1565 1564 1564 1564 1565 1566 1567 1568
1531 1532 1535 1538 1538 1539 1540 1541 1542 1542 1544 1545 1546 1547 1547 1548 1549 1550 1551 1551 1552 1553 1554 1555 1556 1556 1557 1558 1559 1559 1560 1561 1563 1564 1565 1565 1564 1564 1564 1565 1566 1567 1567
1536 1537 1539 1541 1542 1543 1543 1543 1544 1545 1546 1547 1548 1548 1549 1550 1551 1551 1552 1552 1553 1554 1555 1555 1556 1557 1558 1559 1559 1560 1561 1562 1564 1565 1565 1564 1563 1564 1564 1565 1565 1566 1567
1539 1540 1542 1543 1544 1545 1546 1546 1546 1547 1548 1549 1550 1550 1550 1552 1553 1553 1553 1553 1554 1554 1555 1556 1557 1557 1558 1559 1560 1561 1561 1563 1564 1564 1564 1564 1563 1563 1564 1564 1565 1565 1566
1541 1542 1543 1545 1546 1547 1548 1548 1549 1551 1551 1551 1551 1552 1552 1553 1553 1554 1554 1554 1554 1555 1556 1556 1557 1558 1559 1561 1561 1561 1563 1563 1564 1564 1563 1563 1563 1563 1563 1564 1564 1565 1565
1543 1544 1545 1546 1547 1548 1549 1550 1551 1552 1552 1553 1553 1553 1553 1554 1554 1555 1555 1556 1556 1556 1557 1558 1558 1560 1561 1561 1562 1563 1563 1564 1564 1564 1563 1562 1562 1563 1563 1563 1564 1564 1564
1544 1545 1547 1547 1548 1549 1550 1551 1552 1553 1554 1554 1554 1554 1554 1555 1555 1556 1556 1557 1557 1557 1558 1559 1559 1560 1560 1560 1561 1562 1562 1563 1563 1563 1562 1562 1562 1562 1562 1563 1563 1563 1564
1545 1546 1547 1548 1548 1549 1550 1551 1553 1554 1555 1555 1554 1554 1555 1555 1555 1556 1556 1556 1558 1558 1558 1559 1559 1559 1560 1561 1561 1562 1562 1562 1562 1563 1562 1561 1561 1561 1562 1562 1562 1563 1563
1545 1546 1547 1548 1549 1550 1551 1552 1553 1554 1554 1555 1555 1555 1555 1555 1555 1556 1556 1556 1557 1558 1558 1558 1559 1559 1560 1560 1561 1561 1561 1562 1561 1562 1562 1561 1561 1561 1561 1561 1561 1562 1562
1544 1546 1547 1548 1549 1550 1551 1553 1554 1554 1555 1555 1555 1555 1555 1555 1555 1556 1556 1556 1557 1557 1557 1558 1558 1558 1559 1560 1560 1560 1560 1561 1561 1561 1561 1561 1561 1560 1560 1560 1561 1561 1561
1543 1545 1546 1548 1549 1550 1551 1552 1554 1554 1555 1555 1555 1555 1555 1555 1555 1555 1556 1556 1556 1557 1557 1557 1558 1558 1559 1559 1559 1559 1559 1559 1560 1560 1560 1560 1561 1561 1560 1560 1560 1560 1560
1542 1544 1545 1547 1548 1550 1550 1552 1553 1553 1554 1554 1555 1555 1555 1555 1555 1555 1555 1555 1556 1556 1556 1557 1557 1557 1557 1558 1558 1558 1558 1558 1558 1559 1559 1559 1559 1559 1559 1559 1558 1558 1558
1541 1542 1544 1545 1547 1548 1550 1551 1552 1553 1553 1554 1554 1554 1554 1554 1554 1554 1555 1554 1555 1556 1556 1555 1555 1556 1556 1557 1557 1557 1557 1557 1557 1557 1558 1558 1558 1558 1558 1558 1558 1557 1557
1539 1540 1542 1544 1545 1547 1549 1550 1551 1552 1553 1553 1554 1553 1553 1554 1554 1554 1554 1554 1554 1555 1555 1555 1555 1555 1556 1556 1556 1556 1556 1556 1556 1556 1556 1557 1557 1557 1556 1556 1557 1557 1556
1537 1539 1540 1542 1544 1546 1547 1549 1550 1551 1552 1553 1553 1552 1553 1553 1553 1554 1553 1553 1553 1553 1553 1554 1554 1555 1555 1555 1556 1555 1555 1556 1555 1555 1555 1555 1555 1556 1555 1555 1555 1554 1555
1535 1536 1539 1540 1542 1544 1546 1548 1549 1550 1551 1552 1552 1552 1552 1552 1552 1552 1552 1552 1552 1553 1553 1553 1553 1553 1554 1554 1554 1555 1554 1553 1554 1554 1553 1554 1554 1554 1554 1554 1553 1553 1553
1532 1534 1536 1538 1540 1542 1544 1546 1547 1549 1550 1551 1551 1551 1551 1551 1551 1551 1551 1551 1551 1552 1552 1552 1552 1552 1553 1553 1553 1553 1553 1553 1553 1552 1553 1552 1552 1552 1552 1552 1552 1551 1551
1530 1532 1534 1536 1538 1540 1542 1544 1545 1547 1548 1549 1549 1549 1550 1550 1550 1550 1550 1550 1549 1550 1550 1550 1551 1551 1551 1552 1552 1552 1551 1551 1551 1551 1551 1551 1550 1550 1550 1549 1549 1549 1549
1527 1529 1531 1533 1535 1537 1539 1541 1543 1544 1546 1547 1547 1548 1548 1549 1549 1548 1549 1548 1549 1549 1549 1549 1549 1549 1549 1549 1550 1550 1550 1550 1549 1549 1549 1548 1548 1548 1547 1547 1547 1546 1546